Location: York
(31.8935°S, 116.7682°E)
Time: 18:14:22
(UTC+08:00)

Hubble Space Telescope - Pass Details

Date: 22 May 2021
Orbit: 535 x 539 km, 28.5° (Epoch: 17 June)

Event Time Altitude Azimuth Distance (km) Brightness Sun altitude
Rises 20:04:04 0° 272° (W) 2,692 5.4 -34.5°
Reaches altitude 10° 20:06:31 10° 282° (WNW) 1,799 4.2 -35.0°
Enters shadow 20:07:15 14° 288° (WNW) 1,560 3.8 -35.1°
